Weather History for Cairo, IL

Change the Weather History Date:

Wednesday, October 3, 2012

  Actual Average Record
Temperature  
Mean Temperature 63 °F -  
Max Temperature 78 °F 75 °F 90 °F (1954)
Min Temperature 48 °F 53 °F 37 °F (2004)
Degree Days  
Heating Degree Days 2    
Growing Degree Days 13 (Base 50)    
Moisture  
Dew Point 54 °F    
Average Humidity 69    
Maximum Humidity 94    
Minimum Humidity 39    
Precipitation  
Precipitation 0.02 in - - ()
Sea Level Pressure  
Sea Level Pressure 30.02 in    
Wind  
Wind Speed 4 mph (South)    
Max Wind Speed 14 mph    
Max Gust Speed 21 mph    
Visibility 9 miles    
Events Fog , Thunderstorm    
Averages and records for this station are not official NWS values.
T = Trace of Precipitation, MM = Missing Value Source: NWS Daily Summary

Daily Weather History Graph

Daily Weather History Graph

Search for Another Location

Airport:

Trip Planner

Search our weather history database for the weather conditions in past years. The results will help you decide how hot, cold, wet, or windy it might be!

Date:

Astronomy

Oct. 03, 2012 Rise Set
Actual Time 6:54 AM CDT 6:36 PM CDT
Civil Twilight 6:28 AM CDT 7:02 PM CDT
Nautical Twilight 5:58 AM CDT 7:32 PM CDT
Astronomical Twilight 5:28 AM CDT 8:02 PM CDT
Moon 8:34 PM CDT (10/3) 10:11 AM CDT (10/3)
Length of Visible Light 12h 33m
Length of Day
11h 42m
Waning Gibbous, 88% of the Moon is Illuminated
Oct 3
Waning Gibbous
Oct 8
Last Quarter
Oct 15
New
Oct 21
First Quarter
Oct 29
Full

Hourly Weather History & Observations

Time (CDT) Temp. Dew Point Humidity Pressure Visibility Wind Dir Wind Speed Gust Speed Precip Events Conditions
12:15 AM 60.8 °F 53.6 °F 77% 29.94 in 10.0 mi Calm Calm - N/A   Overcast
12:35 AM 60.8 °F 55.4 °F 82% 29.94 in 10.0 mi South 3.5 mph - N/A   Overcast
12:55 AM 60.8 °F 53.6 °F 77% 29.94 in 10.0 mi South 3.5 mph - N/A   Overcast
1:15 AM 59.0 °F 53.6 °F 82% 29.95 in 10.0 mi Calm Calm - N/A   Mostly Cloudy
1:35 AM 59.0 °F 53.6 °F 82% 29.95 in 10.0 mi South 3.5 mph - N/A   Scattered Clouds
1:55 AM 59.0 °F 53.6 °F 82% 29.96 in 10.0 mi South 5.8 mph - N/A   Clear
2:15 AM 59.0 °F 53.6 °F 82% 29.96 in 10.0 mi SSE 3.5 mph - N/A   Clear
2:35 AM 57.2 °F 51.8 °F 82% 29.96 in 10.0 mi Calm Calm - N/A   Clear
2:55 AM 57.2 °F 51.8 °F 82% 29.96 in 10.0 mi Calm Calm - N/A   Clear
3:15 AM 53.6 °F 50.0 °F 88% 29.97 in 10.0 mi Calm Calm - N/A   Clear
3:35 AM 53.6 °F 50.0 °F 88% 29.97 in 4.0 mi Calm Calm - N/A   Clear
3:55 AM 51.8 °F 48.2 °F 88% 29.97 in 0.5 mi Calm Calm - N/A Fog Fog
4:15 AM 53.6 °F 50.0 °F 88% 29.98 in 0.2 mi Calm Calm - N/A Fog Fog
4:35 AM 51.8 °F 50.0 °F 94% 29.98 in 5.0 mi Calm Calm - N/A   Clear
4:55 AM 50.0 °F 48.2 °F 94% 29.99 in 3.0 mi Calm Calm - N/A   Clear
5:15 AM 50.0 °F 46.4 °F 87% 29.99 in 0.2 mi Calm Calm - N/A Fog Fog
5:35 AM 50.0 °F 46.4 °F 87% 30.00 in 5.0 mi Calm Calm - N/A   Clear
6:35 AM 48.2 °F 46.4 °F 93% 30.02 in 5.0 mi Calm Calm - N/A   Clear
6:55 AM 50.0 °F 46.4 °F 87% 30.02 in 5.0 mi Calm Calm - N/A   Clear
7:15 AM 48.2 °F 46.4 °F 93% 30.02 in 7.0 mi Calm Calm - N/A   Clear
7:35 AM 50.0 °F 48.2 °F 94% 30.03 in 7.0 mi Calm Calm - N/A   Clear
7:55 AM 53.6 °F 51.8 °F 94% 30.04 in 7.0 mi Calm Calm - N/A   Clear
8:15 AM 57.2 °F 55.4 °F 94% 30.03 in 10.0 mi South 4.6 mph - N/A   Clear
8:35 AM 59.0 °F 55.4 °F 88% 30.04 in 10.0 mi SSW 4.6 mph - N/A   Clear
8:55 AM 62.6 °F 57.2 °F 82% 30.04 in 10.0 mi SW 4.6 mph - N/A   Clear
9:15 AM 64.4 °F 55.4 °F 73% 30.05 in 10.0 mi SSW 4.6 mph - N/A   Clear
9:35 AM 66.2 °F 55.4 °F 68% 30.05 in 10.0 mi South 6.9 mph - N/A   Clear
9:55 AM 68.0 °F 55.4 °F 64% 30.05 in 10.0 mi South 5.8 mph - N/A   Clear
10:15 AM 68.0 °F 55.4 °F 64% 30.06 in 10.0 mi SSW 8.1 mph - N/A   Clear
10:35 AM 69.8 °F 55.4 °F 60% 30.06 in 10.0 mi SSW 6.9 mph - N/A   Clear
10:55 AM 71.6 °F 55.4 °F 57% 30.06 in 10.0 mi South 5.8 mph - N/A   Clear
11:15 AM 73.4 °F 55.4 °F 53% 30.06 in 10.0 mi SSW 6.9 mph - N/A   Clear
11:35 AM 73.4 °F 55.4 °F 53% 30.05 in 10.0 mi SSE 6.9 mph - N/A   Clear
11:55 AM 73.4 °F 55.4 °F 53% 30.05 in 10.0 mi South 5.8 mph - N/A   Scattered Clouds
12:15 PM 75.2 °F 55.4 °F 50% 30.05 in 10.0 mi South 6.9 mph - N/A   Clear
12:35 PM 77.0 °F 55.4 °F 47% 30.04 in 10.0 mi SSW 6.9 mph - N/A   Clear
12:55 PM 77.0 °F 53.6 °F 44% 30.03 in 10.0 mi SSW 10.4 mph - N/A   Clear
1:15 PM 77.0 °F 53.6 °F 44% 30.03 in 10.0 mi South 13.8 mph 20.7 mph N/A   Clear
1:35 PM 78.8 °F 53.6 °F 42% 30.02 in 10.0 mi SSW 11.5 mph - N/A   Clear
1:55 PM 78.8 °F 53.6 °F 42% 30.02 in 10.0 mi South 11.5 mph 17.3 mph N/A   Clear
2:15 PM 78.8 °F 53.6 °F 42% 30.02 in 10.0 mi SSW 9.2 mph - N/A   Clear
2:35 PM 77.0 °F 53.6 °F 44% 30.01 in 10.0 mi South 9.2 mph 16.1 mph N/A   Scattered Clouds
2:55 PM 78.8 °F 53.6 °F 42% 30.01 in 10.0 mi SSW 10.4 mph - N/A   Scattered Clouds
3:15 PM 78.8 °F 53.6 °F 42% 30.01 in 10.0 mi SSW 6.9 mph - N/A   Clear
3:35 PM 77.0 °F 53.6 °F 44% 30.00 in 10.0 mi SW 10.4 mph - N/A   Scattered Clouds
3:55 PM 78.8 °F 53.6 °F 42% 30.01 in 10.0 mi SSW 13.8 mph - N/A   Scattered Clouds
4:15 PM 78.8 °F 51.8 °F 39% 30.01 in 10.0 mi SSW 11.5 mph 17.3 mph N/A   Clear
4:35 PM 77.0 °F 53.6 °F 44% 30.01 in 10.0 mi South 8.1 mph - N/A   Scattered Clouds
4:55 PM 75.2 °F 55.4 °F 50% 30.02 in 10.0 mi South 5.8 mph - N/A   Mostly Cloudy
5:15 PM 73.4 °F 55.4 °F 53% 30.02 in 10.0 mi South 5.8 mph - N/A Thunderstorm Mostly Cloudy
5:35 PM 73.4 °F 55.4 °F 53% 30.02 in 10.0 mi South 6.9 mph - N/A   Scattered Clouds
5:55 PM 73.4 °F 55.4 °F 53% 30.02 in 10.0 mi South 5.8 mph - N/A   Scattered Clouds
6:15 PM 73.4 °F 55.4 °F 53% 30.03 in 10.0 mi South 5.8 mph - N/A   Scattered Clouds
6:35 PM 71.6 °F 57.2 °F 60% 30.03 in 10.0 mi SSE 5.8 mph - N/A   Scattered Clouds
6:55 PM 71.6 °F 57.2 °F 60% 30.03 in 10.0 mi SSE 6.9 mph - N/A   Scattered Clouds
7:15 PM 71.6 °F 57.2 °F 60% 30.03 in 10.0 mi SSE 6.9 mph - N/A   Scattered Clouds
7:55 PM 68.0 °F 59.0 °F 73% 30.05 in 10.0 mi South 3.5 mph - 0.02 in   Mostly Cloudy
8:15 PM 66.2 °F 59.0 °F 78% 30.06 in 10.0 mi WSW 3.5 mph - N/A   Mostly Cloudy
8:35 PM 66.2 °F 59.0 °F 78% 30.07 in 10.0 mi Calm Calm - N/A   Scattered Clouds
8:55 PM 64.4 °F 59.0 °F 83% 30.07 in 10.0 mi SSW 3.5 mph - N/A   Clear
9:15 PM 66.2 °F 60.8 °F 83% 30.07 in 10.0 mi South 3.5 mph - N/A   Scattered Clouds
9:35 PM 66.2 °F 59.0 °F 78% 30.08 in 10.0 mi South 3.5 mph - N/A   Mostly Cloudy
9:55 PM 64.4 °F 57.2 °F 77% 30.09 in 10.0 mi South 4.6 mph - N/A   Scattered Clouds
10:15 PM 64.4 °F 57.2 °F 77% 30.10 in 10.0 mi South 5.8 mph - N/A   Scattered Clouds
10:35 PM 64.4 °F 57.2 °F 77% 30.10 in 10.0 mi South 5.8 mph - N/A   Scattered Clouds
11:15 PM 64.4 °F 57.2 °F 77% 30.12 in 10.0 mi South 4.6 mph - N/A   Scattered Clouds
11:35 PM 64.4 °F 57.2 °F 77% 30.12 in 10.0 mi South 3.5 mph - N/A   Scattered Clouds
11:55 PM 64.4 °F 57.2 °F 77% 30.12 in 10.0 mi South 5.8 mph - N/A   Clear